Time,TemperatureF,DewpointF,PressureIn,WindDirection,WindDirectionDegrees,WindSpeedMPH,WindSpeedGustMPH,Humidity,HourlyPrecipIn,Conditions,Clouds,dailyrainin,SoftwareType,DateUTC
2013-02-20 00:01:00,31.0,27.0,29.80,North,360,0.0,0.0,86,0.00,,,0.14,,2013-02-20 08:01:00,
2013-02-20 00:11:00,31.0,27.0,29.80,North,360,0.0,0.0,86,0.00,,,0.14,,2013-02-20 08:11:00,
2013-02-20 00:21:00,31.0,27.0,29.80,North,360,0.0,0.0,86,0.00,,,0.14,,2013-02-20 08:21:00,
2013-02-20 00:31:00,31.0,27.0,29.80,North,360,0.0,0.0,86,0.00,,,0.14,,2013-02-20 08:31:00,
2013-02-20 00:41:00,31.0,27.0,29.80,North,360,0.0,0.0,86,0.00,,,0.14,,2013-02-20 08:41:00,
2013-02-20 00:51:00,31.0,27.0,29.81,North,360,0.0,0.0,86,0.00,,,0.14,,2013-02-20 08:51:00,
2013-02-20 01:01:00,30.0,27.0,29.81,North,360,0.0,0.0,87,0.00,,,0.14,,2013-02-20 09:01:00,
2013-02-20 01:11:00,30.0,27.0,29.81,North,360,0.0,0.0,87,0.00,,,0.14,,2013-02-20 09:11:00,
2013-02-20 01:21:00,31.0,28.0,29.81,North,360,0.0,0.0,88,0.00,,,0.14,,2013-02-20 09:21:00,
2013-02-20 01:31:00,31.0,28.0,29.82,North,360,0.0,0.0,88,0.00,,,0.14,,2013-02-20 09:31:00,
2013-02-20 01:41:00,31.0,28.0,29.82,North,360,0.0,0.0,88,0.00,,,0.14,,2013-02-20 09:41:00,
2013-02-20 01:51:00,30.0,27.0,29.82,North,360,0.0,0.0,88,0.00,,,0.14,,2013-02-20 09:51:00,
2013-02-20 02:01:00,30.0,27.0,29.82,North,360,0.0,0.0,88,0.00,,,0.14,,2013-02-20 10:01:00,
2013-02-20 02:11:00,30.0,27.0,29.82,North,360,0.0,0.0,88,0.00,,,0.14,,2013-02-20 10:11:00,
2013-02-20 02:21:00,30.0,27.0,29.83,North,360,0.0,0.0,88,0.00,,,0.14,,2013-02-20 10:21:00,
2013-02-20 02:31:00,30.0,27.0,29.83,North,360,0.0,0.0,88,0.00,,,0.14,,2013-02-20 10:31:00,
2013-02-20 02:41:00,30.0,27.0,29.83,North,360,0.0,0.0,88,0.00,,,0.14,,2013-02-20 10:41:00,
2013-02-20 02:51:00,29.0,26.0,29.83,North,360,0.0,0.0,88,0.00,,,0.14,,2013-02-20 10:51:00,
2013-02-20 03:01:00,29.0,26.0,29.84,North,360,0.0,0.0,89,0.00,,,0.14,,2013-02-20 11:01:00,
2013-02-20 03:11:00,29.0,26.0,29.85,North,360,0.0,0.0,88,0.00,,,0.14,,2013-02-20 11:11:00,
2013-02-20 03:21:00,29.0,26.0,29.85,North,360,0.0,0.0,88,0.00,,,0.14,,2013-02-20 11:21:00,
2013-02-20 03:31:00,28.0,25.0,29.85,North,360,0.0,0.0,88,0.00,,,0.14,,2013-02-20 11:31:00,
2013-02-20 03:41:00,28.0,25.0,29.85,North,360,0.0,0.0,88,0.00,,,0.14,,2013-02-20 11:41:00,
2013-02-20 03:52:00,28.0,25.0,29.85,North,360,0.0,0.0,89,0.00,,,0.14,,2013-02-20 11:52:00,
2013-02-20 04:01:00,28.0,25.0,29.85,North,360,0.0,0.0,88,0.00,,,0.14,,2013-02-20 12:01:00,
2013-02-20 04:11:00,28.0,25.0,29.85,North,360,0.0,0.0,88,0.00,,,0.14,,2013-02-20 12:11:00,
2013-02-20 04:21:00,29.0,26.0,29.85,North,360,0.0,0.0,89,0.00,,,0.13,,2013-02-20 12:21:00,
2013-02-20 04:31:00,28.0,25.0,29.86,North,360,0.0,0.0,89,0.00,,,0.13,,2013-02-20 12:31:00,
2013-02-20 04:41:00,28.0,25.0,29.86,North,360,0.0,0.0,89,0.00,,,0.13,,2013-02-20 12:41:00,
2013-02-20 04:52:00,28.0,25.0,29.87,North,360,0.0,0.0,90,0.00,,,0.13,,2013-02-20 12:52:00,
2013-02-20 05:01:00,28.0,25.0,29.87,North,360,0.0,0.0,90,0.00,,,0.13,,2013-02-20 13:01:00,
2013-02-20 05:11:00,28.0,25.0,29.87,North,360,0.0,0.0,90,0.00,,,0.13,,2013-02-20 13:11:00,
2013-02-20 05:22:00,28.0,25.0,29.87,North,360,0.0,0.0,89,0.00,,,0.13,,2013-02-20 13:22:00,
2013-02-20 05:31:00,28.0,25.0,29.88,North,360,0.0,0.0,90,0.00,,,0.13,,2013-02-20 13:31:00,
2013-02-20 05:42:00,28.0,25.0,29.88,North,360,0.0,0.0,90,0.00,,,0.13,,2013-02-20 13:42:00,
2013-02-20 05:51:00,27.0,24.0,29.88,North,360,0.0,0.0,89,0.00,,,0.13,,2013-02-20 13:51:00,
2013-02-20 06:01:00,27.0,24.0,29.89,North,360,0.0,0.0,90,0.00,,,0.13,,2013-02-20 14:01:00,
2013-02-20 06:11:00,27.0,24.0,29.89,North,360,0.0,0.0,90,0.00,,,0.13,,2013-02-20 14:11:00,
2013-02-20 06:21:00,28.0,25.0,29.89,North,360,0.0,0.0,89,0.00,,,0.13,,2013-02-20 14:21:00,
2013-02-20 06:32:00,27.0,24.0,29.90,North,360,0.0,0.0,90,0.00,,,0.13,,2013-02-20 14:32:00,
2013-02-20 06:42:00,27.0,24.0,29.90,North,360,0.0,0.0,90,0.00,,,0.13,,2013-02-20 14:42:00,
2013-02-20 06:52:00,27.0,25.0,29.89,North,360,0.0,0.0,91,0.00,,,0.12,,2013-02-20 14:52:00,
2013-02-20 07:01:00,27.0,24.0,29.90,North,360,0.0,0.0,90,0.00,,,0.12,,2013-02-20 15:01:00,
2013-02-20 07:11:00,27.0,24.0,29.91,North,360,0.0,0.0,90,0.00,,,0.12,,2013-02-20 15:11:00,
2013-02-20 07:22:00,27.0,24.0,29.91,North,360,0.0,0.0,90,0.00,,,0.12,,2013-02-20 15:22:00,
2013-02-20 07:31:00,27.0,24.0,29.91,North,360,0.0,0.0,90,0.00,,,0.10,,2013-02-20 15:31:00,
2013-02-20 07:41:00,27.0,24.0,29.92,North,360,0.0,0.0,90,0.00,,,0.08,,2013-02-20 15:41:00,
2013-02-20 07:52:00,27.0,24.0,29.92,North,360,0.0,0.0,90,0.00,,,0.08,,2013-02-20 15:52:00,
2013-02-20 08:01:00,27.0,25.0,29.93,North,360,0.0,0.0,91,0.00,,,0.05,,2013-02-20 16:01:00,
2013-02-20 08:11:00,27.0,25.0,29.93,North,360,0.0,0.0,91,0.00,,,0.05,,2013-02-20 16:11:00,
2013-02-20 08:21:00,27.0,24.0,29.93,North,360,0.0,0.0,90,0.00,,,0.04,,2013-02-20 16:21:00,
2013-02-20 08:32:00,28.0,26.0,29.94,North,360,0.0,0.0,92,0.00,,,0.03,,2013-02-20 16:32:00,
2013-02-20 08:41:00,28.0,26.0,29.94,North,360,0.0,0.0,92,0.00,,,0.03,,2013-02-20 16:41:00,
2013-02-20 08:51:00,29.0,27.0,29.94,North,360,0.0,0.0,92,0.00,,,0.01,,2013-02-20 16:51:00,
2013-02-20 09:01:00,31.0,29.0,29.93,North,360,0.0,0.0,93,0.00,,,0.00,,2013-02-20 17:01:00,
2013-02-20 09:11:00,33.0,31.0,29.94,North,360,0.0,0.0,93,0.00,,,0.00,,2013-02-20 17:11:00,
2013-02-20 09:21:00,33.0,31.0,29.94,North,360,0.0,0.0,93,0.00,,,0.00,,2013-02-20 17:21:00,
2013-02-20 09:32:00,35.0,34.0,29.94,North,360,0.0,0.0,95,0.00,,,0.00,,2013-02-20 17:32:00,
2013-02-20 09:41:00,35.0,34.0,29.94,North,360,0.0,0.0,95,0.00,,,0.00,,2013-02-20 17:41:00,
2013-02-20 09:52:00,40.0,39.0,29.94,North,360,0.0,0.0,95,0.01,,,0.01,,2013-02-20 17:52:00,
2013-02-20 10:02:00,44.0,42.0,29.95,NE,40,0.0,1.0,92,0.01,,,0.01,,2013-02-20 18:02:00,
2013-02-20 10:11:00,44.0,42.0,29.95,NE,40,0.0,1.0,92,0.01,,,0.01,,2013-02-20 18:11:00,
2013-02-20 10:21:00,46.0,41.0,29.94,NE,40,0.0,1.0,84,0.01,,,0.01,,2013-02-20 18:21:00,
2013-02-20 10:31:00,48.0,40.0,29.94,NE,40,0.0,1.0,73,0.00,,,0.01,,2013-02-20 18:31:00,
2013-02-20 10:41:00,48.0,40.0,29.94,NE,40,0.0,1.0,73,0.00,,,0.01,,2013-02-20 18:41:00,
2013-02-20 10:51:00,51.0,38.0,29.94,North,349,0.0,4.0,60,0.00,,,0.01,,2013-02-20 18:51:00,
2013-02-20 11:01:00,52.0,35.0,29.94,WSW,249,0.0,3.0,53,0.00,,,0.01,,2013-02-20 19:01:00,
2013-02-20 11:11:00,52.0,35.0,29.94,WSW,249,0.0,3.0,53,0.00,,,0.01,,2013-02-20 19:11:00,
2013-02-20 11:21:00,53.0,36.0,29.89,North,354,0.0,2.0,52,0.00,,,0.01,,2013-02-20 19:21:00,
2013-02-20 11:31:00,54.0,36.0,29.93,North,1,0.0,3.0,50,0.00,,,0.01,,2013-02-20 19:31:00,
2013-02-20 11:41:00,54.0,36.0,29.93,North,1,0.0,3.0,50,0.00,,,0.01,,2013-02-20 19:41:00,
2013-02-20 11:51:00,55.0,36.0,29.93,SSW,195,0.0,2.0,49,0.00,,,0.01,,2013-02-20 19:51:00,
2013-02-20 12:01:00,56.0,36.0,29.93,East,86,0.0,3.0,47,0.00,,,0.01,,2013-02-20 20:01:00,
2013-02-20 12:11:00,57.0,36.0,29.93,North,359,0.0,3.0,46,0.00,,,0.01,,2013-02-20 20:11:00,
2013-02-20 12:21:00,57.0,36.0,29.93,North,359,0.0,3.0,46,0.00,,,0.01,,2013-02-20 20:21:00,
2013-02-20 12:31:00,58.0,34.0,29.93,NNW,348,1.0,5.0,41,0.00,,,0.01,,2013-02-20 20:31:00,
2013-02-20 12:41:00,59.0,37.0,29.92,North,360,0.0,6.0,43,0.00,,,0.01,,2013-02-20 20:41:00,
2013-02-20 12:51:00,59.0,37.0,29.92,North,360,0.0,6.0,43,0.00,,,0.01,,2013-02-20 20:51:00,
2013-02-20 13:01:00,59.0,35.0,29.92,NW,313,1.0,5.0,40,0.00,,,0.01,,2013-02-20 21:01:00,
2013-02-20 13:11:00,60.0,33.0,29.85,North,360,0.0,3.0,36,0.00,,,0.01,,2013-02-20 21:11:00,
2013-02-20 13:21:00,60.0,33.0,29.85,North,360,0.0,3.0,36,0.00,,,0.01,,2013-02-20 21:21:00,
2013-02-20 13:31:00,60.0,34.0,29.91,NW,316,0.0,3.0,38,0.00,,,0.01,,2013-02-20 21:31:00,
2013-02-20 13:41:00,60.0,34.0,29.91,NW,316,0.0,3.0,38,0.00,,,0.01,,2013-02-20 21:41:00,
2013-02-20 13:52:00,61.0,34.0,29.90,WNW,289,0.0,5.0,36,0.00,,,0.01,,2013-02-20 21:52:00,
2013-02-20 14:01:00,61.0,32.0,29.90,NNW,332,0.0,7.0,34,0.00,,,0.01,,2013-02-20 22:01:00,
2013-02-20 14:11:00,62.0,29.0,29.89,North,351,1.0,6.0,28,0.00,,,0.01,,2013-02-20 22:11:00,
2013-02-20 14:21:00,62.0,29.0,29.89,North,351,1.0,6.0,28,0.00,,,0.01,,2013-02-20 22:21:00,
2013-02-20 14:31:00,63.0,33.0,29.90,NNW,347,1.0,6.0,32,0.00,,,0.01,,2013-02-20 22:31:00,
2013-02-20 14:41:00,63.0,33.0,29.90,NNW,347,1.0,6.0,32,0.00,,,0.01,,2013-02-20 22:41:00,
2013-02-20 14:51:00,62.0,30.0,29.89,NNE,25,4.0,8.0,30,0.00,,,0.01,,2013-02-20 22:51:00,
2013-02-20 15:01:00,61.0,30.0,29.85,NNW,339,3.0,10.0,31,0.00,,,0.01,,2013-02-20 23:01:00,
2013-02-20 15:11:00,61.0,29.0,29.93,NNE,23,5.0,9.0,30,0.00,,,0.01,,2013-02-20 23:11:00,
2013-02-20 15:21:00,61.0,29.0,29.93,NNE,23,5.0,9.0,30,0.00,,,0.01,,2013-02-20 23:21:00,
2013-02-20 15:31:00,60.0,29.0,29.89,NNE,16,4.0,9.0,31,0.00,,,0.01,,2013-02-20 23:31:00,
2013-02-20 15:42:00,60.0,29.0,29.89,NNE,16,4.0,9.0,31,0.00,,,0.01,,2013-02-20 23:42:00,
2013-02-20 15:51:00,60.0,27.0,29.89,NNE,16,4.0,10.0,28,0.00,,,0.01,,2013-02-20 23:51:00,
2013-02-20 16:02:00,62.0,32.0,29.89,NNW,335,1.0,7.0,32,0.00,,,0.01,,2013-02-21 00:02:00,
2013-02-20 16:11:00,62.0,32.0,29.89,NNW,335,1.0,7.0,32,0.00,,,0.01,,2013-02-21 00:11:00,
2013-02-20 16:21:00,62.0,33.0,29.90,NNW,331,0.0,7.0,33,0.00,,,0.01,,2013-02-21 00:21:00,
2013-02-20 16:31:00,61.0,31.0,29.90,North,2,1.0,9.0,32,0.00,,,0.01,,2013-02-21 00:31:00,
2013-02-20 16:41:00,61.0,31.0,29.90,North,2,1.0,9.0,32,0.00,,,0.01,,2013-02-21 00:41:00,
2013-02-20 16:52:00,62.0,33.0,29.90,WNW,302,0.0,7.0,33,0.00,,,0.01,,2013-02-21 00:52:00,
2013-02-20 17:01:00,61.0,32.0,29.90,NW,317,0.0,5.0,33,0.00,,,0.01,,2013-02-21 01:01:00,
2013-02-20 17:11:00,61.0,32.0,29.90,NW,317,0.0,5.0,33,0.00,,,0.01,,2013-02-21 01:11:00,
2013-02-20 17:21:00,61.0,33.0,29.90,North,353,0.0,2.0,35,0.00,,,0.01,,2013-02-21 01:21:00,
2013-02-20 17:31:00,59.0,33.0,29.91,North,358,1.0,4.0,37,0.00,,,0.01,,2013-02-21 01:31:00,
2013-02-20 17:41:00,59.0,33.0,29.91,North,358,1.0,4.0,37,0.00,,,0.01,,2013-02-21 01:41:00,
2013-02-20 17:51:00,58.0,33.0,29.87,NNW,347,0.0,4.0,38,0.00,,,0.01,,2013-02-21 01:51:00,
2013-02-20 18:01:00,56.0,33.0,29.88,North,360,0.0,4.0,41,0.00,,,0.01,,2013-02-21 02:01:00,
2013-02-20 18:11:00,56.0,33.0,29.88,North,360,0.0,4.0,41,0.00,,,0.01,,2013-02-21 02:11:00,
2013-02-20 18:21:00,55.0,33.0,29.92,North,359,0.0,2.0,43,0.00,,,0.01,,2013-02-21 02:21:00,
2013-02-20 18:32:00,53.0,32.0,29.92,NNW,338,0.0,0.0,45,0.00,,,0.01,,2013-02-21 02:32:00,
2013-02-20 18:42:00,53.0,32.0,29.92,NNW,338,0.0,0.0,45,0.00,,,0.01,,2013-02-21 02:42:00,
2013-02-20 18:51:00,53.0,32.0,29.92,NNW,338,0.0,0.0,45,0.00,,,0.01,,2013-02-21 02:51:00,
2013-02-20 19:01:00,51.0,34.0,29.93,North,357,0.0,3.0,51,0.00,,,0.01,,2013-02-21 03:01:00,
2013-02-20 19:11:00,51.0,34.0,29.93,North,357,0.0,3.0,51,0.00,,,0.01,,2013-02-21 03:11:00,
2013-02-20 19:21:00,50.0,34.0,29.94,North,359,0.0,0.0,53,0.00,,,0.01,,2013-02-21 03:21:00,
2013-02-20 19:31:00,49.0,34.0,29.95,NNW,343,0.0,3.0,55,0.00,,,0.01,,2013-02-21 03:31:00,
2013-02-20 19:41:00,49.0,34.0,29.95,NNW,343,0.0,3.0,55,0.00,,,0.01,,2013-02-21 03:41:00,
2013-02-20 19:51:00,49.0,34.0,29.95,North,358,0.0,3.0,55,0.00,,,0.01,,2013-02-21 03:51:00,
2013-02-20 20:01:00,49.0,34.0,29.89,North,355,0.0,4.0,55,0.00,,,0.01,,2013-02-21 04:01:00,
2013-02-20 20:11:00,49.0,34.0,29.89,North,355,0.0,4.0,55,0.00,,,0.01,,2013-02-21 04:11:00,
2013-02-20 20:21:00,49.0,34.0,29.96,North,357,0.0,1.0,56,0.00,,,0.01,,2013-02-21 04:21:00,
2013-02-20 20:31:00,48.0,33.0,29.96,NNW,341,0.0,2.0,56,0.00,,,0.01,,2013-02-21 04:31:00,
2013-02-20 20:41:00,48.0,33.0,29.96,NNW,341,0.0,2.0,56,0.00,,,0.01,,2013-02-21 04:41:00,
2013-02-20 20:51:00,47.0,33.0,29.96,North,9,0.0,0.0,58,0.00,,,0.01,,2013-02-21 04:51:00,
2013-02-20 21:02:00,46.0,33.0,29.96,North,9,0.0,0.0,60,0.00,,,0.01,,2013-02-21 05:02:00,
2013-02-20 21:11:00,46.0,33.0,29.96,North,9,0.0,0.0,60,0.00,,,0.01,,2013-02-21 05:11:00,
2013-02-20 21:21:00,46.0,33.0,29.98,North,9,0.0,0.0,61,0.00,,,0.01,,2013-02-21 05:21:00,
2013-02-20 21:32:00,45.0,33.0,29.98,North,9,0.0,0.0,62,0.00,,,0.01,,2013-02-21 05:32:00,
2013-02-20 21:42:00,45.0,33.0,29.98,North,9,0.0,0.0,62,0.00,,,0.01,,2013-02-21 05:42:00,
2013-02-20 21:51:00,45.0,33.0,29.94,North,9,0.0,0.0,63,0.00,,,0.01,,2013-02-21 05:51:00,
2013-02-20 22:01:00,44.0,33.0,30.00,North,9,0.0,0.0,66,0.00,,,0.01,,2013-02-21 06:01:00,
2013-02-20 22:10:00,44.0,33.0,30.00,North,9,0.0,0.0,66,0.00,,,0.01,,2013-02-21 06:10:00,
2013-02-20 22:20:00,44.0,33.0,29.99,North,9,0.0,0.0,66,0.00,,,0.01,,2013-02-21 06:20:00,
2013-02-20 22:31:00,43.0,33.0,29.99,North,9,0.0,0.0,67,0.00,,,0.01,,2013-02-21 06:31:00,
2013-02-20 22:41:00,42.0,33.0,29.99,North,9,0.0,0.0,70,0.00,,,0.01,,2013-02-21 06:41:00,
2013-02-20 22:51:00,42.0,33.0,29.99,North,9,0.0,0.0,70,0.00,,,0.01,,2013-02-21 06:51:00,
2013-02-20 23:01:00,41.0,32.0,30.00,North,9,0.0,0.0,71,0.00,,,0.01,,2013-02-21 07:01:00,
2013-02-20 23:11:00,40.0,32.0,29.99,North,9,0.0,0.0,72,0.00,,,0.01,,2013-02-21 07:11:00,
2013-02-20 23:21:00,40.0,32.0,29.99,North,9,0.0,0.0,72,0.00,,,0.01,,2013-02-21 07:21:00,
2013-02-20 23:31:00,39.0,32.0,30.00,North,9,0.0,0.0,75,0.00,,,0.01,,2013-02-21 07:31:00,
2013-02-20 23:41:00,38.0,30.0,29.99,North,9,0.0,0.0,74,0.00,,,0.01,,2013-02-21 07:41:00,
2013-02-20 23:52:00,38.0,30.0,29.99,North,9,0.0,0.0,74,0.00,,,0.01,,2013-02-21 07:52:00,